BC, British Columbia

6:23 AM EST on December 07, 2016 (GMT -0500)
Hall Beach

Weather History for CYUX - March, 2014

Change the Weather History Date:

Wednesday, March 26, 2014

  Actual Average Record
Temperature  
Mean Temperature -30 °F -  
Max Temperature -22 °F -4 °F 14 °F (2007)
Min Temperature -38 °F -20 °F -38 °F (2014)
Degree Days  
Heating Degree Days 95    
Moisture  
Dew Point -39 °F    
Average Humidity 68    
Maximum Humidity 75    
Minimum Humidity 61    
Precipitation  
Precipitation 0.00 in - - ()
Sea Level Pressure  
Sea Level Pressure 29.66 in    
Wind  
Wind Speed 11 mph ()    
Max Wind Speed 16 mph    
Max Gust Speed -    
Visibility 10.4 miles    
Events Snow    
Averages and records for this station are not official NWS values.
T = Trace of Precipitation, MM = Missing Value Source: Averaged Metar Reports

Daily Weather History Graph

Daily Weather History Graph

Search for Another Location

Airport or City:

Trip Planner

Search our weather history database for the weather conditions in past years. The results will help you decide how hot, cold, wet, or windy it might be!

Date:

Astronomy

Mar. 26, 2014 Rise Set
Actual Time 6:57 AM EDT 8:05 PM EDT
Civil Twilight 5:58 AM EDT 9:05 PM EDT
Nautical Twilight 4:40 AM EDT 10:24 PM EDT
Astronomical Twilight 2:41 AM EDT 12:33 AM EDT
Moon 6:16 AM EDT (3/26) 1:39 PM EDT (3/26)
Length of Visible Light 15h 06m
Length of Day
13h 07m
Waning Crescent, 22% of the Moon is Illuminated
Mar 26
Waning Crescent
Mar 30
New
Apr 7
First Quarter
Apr 15
Full
Apr 22
Last Quarter

Hourly Weather History & Observations

Time (EDT) Temp. Windchill Dew Point Humidity Pressure Visibility Wind Dir Wind Speed Gust Speed Precip Events Conditions
12:00 AM -29.2 °F -55.8 °F -36.4 °F 68% 29.56 in 9.0 mi North 13.8 mph - N/A   Clear
1:00 AM -31.0 °F -58.1 °F -38.2 °F 68% 29.56 in 7.0 mi North 13.8 mph - N/A Snow Ice Crystals
2:00 AM -32.8 °F -59.3 °F -40.0 °F 68% 29.56 in 12.0 mi NNW 12.7 mph - N/A Snow Ice Crystals
3:00 AM -34.6 °F -63.7 °F -41.8 °F 68% 29.57 in 12.0 mi NNW 15.0 mph - N/A Snow Ice Crystals
3:30 AM -34.6 °F -62.7 °F -43.6 °F 61% 29.56 in 12.0 mi NNW 13.8 mph - N/A Snow Ice Crystals
4:00 AM -38.2 °F -66.2 °F -45.4 °F 67% 29.57 in 9.0 mi NNW 12.7 mph - N/A   Clear
5:00 AM -34.6 °F -62.7 °F -41.8 °F 68% 29.57 in 9.0 mi North 13.8 mph - N/A   Clear
6:00 AM -34.6 °F -63.7 °F -41.8 °F 68% 29.57 in 9.0 mi North 15.0 mph - N/A   Clear
6:56 AM -34.6 °F -64.6 °F -41.8 °F 68% 29.58 in 5.0 mi North 16.1 mph - N/A   Haze
7:00 AM -34.6 °F -64.6 °F -41.8 °F 68% 29.58 in 3.0 mi North 16.1 mph - N/A   Haze
7:02 AM -34.6 °F -64.6 °F -41.8 °F 68% 29.58 in 2.5 mi North 16.1 mph - N/A   Haze
7:07 AM -34.6 °F -64.6 °F -41.8 °F 68% 29.58 in 3.0 mi North 16.1 mph - N/A   Haze
7:12 AM -34.6 °F -63.7 °F -41.8 °F 68% 29.58 in 7.0 mi North 15.0 mph - N/A   Partly Cloudy
8:00 AM -38.2 °F -66.2 °F -45.4 °F 67% 29.59 in 15.0 mi NNW 12.7 mph - N/A   Partly Cloudy
8:33 AM -36.4 °F -63.9 °F -45.4 °F 61% 29.60 in 6.0 mi NNW 12.7 mph - N/A   Ice Crystals
9:00 AM -36.4 °F -63.9 °F -43.6 °F 67% 29.60 in 5.0 mi NNW 12.7 mph - N/A Snow Ice Crystals
10:00 AM -32.8 °F -59.3 °F -40.0 °F 68% 29.61 in 10.0 mi NNW 12.7 mph - N/A Snow Ice Crystals
11:00 AM -31.0 °F -53.4 °F -38.2 °F 68% 29.62 in 12.0 mi NNW 9.2 mph - N/A Snow Ice Crystals
11:31 AM -29.2 °F -51.2 °F -36.4 °F 68% 29.63 in 15.0 mi NNW 9.2 mph - N/A   Partly Cloudy
12:00 PM -29.2 °F -52.5 °F -36.4 °F 68% 29.64 in 15.0 mi NNW 10.4 mph - N/A   Partly Cloudy
1:00 PM -25.6 °F -46.8 °F -32.8 °F 69% 29.65 in 15.0 mi NNW 9.2 mph - N/A   Partly Cloudy
2:00 PM -23.8 °F -44.5 °F -32.8 °F 63% 29.67 in 15.0 mi NNW 9.2 mph - N/A   Mostly Cloudy
3:00 PM -23.8 °F -44.5 °F -31.0 °F 69% 29.68 in 15.0 mi NW 9.2 mph - N/A   Mostly Cloudy
4:00 PM -22.0 °F -39.4 °F -31.0 °F 63% 29.71 in 15.0 mi NNW 6.9 mph - N/A   Mostly Cloudy
5:00 PM -23.8 °F -44.5 °F -31.0 °F 69% 29.73 in 15.0 mi NW 9.2 mph - N/A   Overcast
6:00 PM -25.6 °F -48.0 °F -32.8 °F 69% 29.75 in 15.0 mi NNW 10.4 mph - N/A   Mostly Cloudy
7:00 PM -27.4 °F -52.5 °F -34.6 °F 69% 29.77 in 15.0 mi NNW 12.7 mph - N/A   Mostly Cloudy
8:00 PM -31.0 °F -54.7 °F -38.2 °F 68% 29.80 in 15.0 mi NNW 10.4 mph - N/A   Overcast
9:00 PM -34.6 °F -57.8 °F -41.8 °F 68% 29.83 in 9.0 mi NNW 9.2 mph - N/A   Clear
9:11 PM -34.6 °F -57.8 °F -40.0 °F 75% 29.83 in 9.0 mi North 9.2 mph - N/A Snow Light Snow
9:26 PM -34.6 °F -57.8 °F -41.8 °F 68% 29.83 in 9.0 mi NNW 9.2 mph - N/A   Clear
10:00 PM -34.6 °F -57.8 °F -41.8 °F 68% 29.84 in 9.0 mi NNW 9.2 mph - N/A   Clear
11:00 PM -36.4 °F -60.1 °F -43.6 °F 67% 29.85 in 9.0 mi NNW 9.2 mph - N/A   Clear